Left ArrowRight Arrow

41.12389, -100.76542

Hourly Observations for June 25, 2024

Temp ( °F °C ) Dew Point ( °F °C ) Humidity (%) Winds ( mph kmh ) Pressure ( in mb ) Visibility ( mi km ) Precip ( " mm )
12:53 am 00:53 Clear 74 23.3 57 13.9 56 56 VRB 3 6 29.76 1008 10 16 0.00 0.00
1:53 am 01:53 Clear 70 21.1 58 14.4 66 66 ESE 3 6 29.75 1007 10 16 0.00 0.00
2:53 am 02:53 Clear 67 19.4 59 15 76 76 E 3 6 29.73 1007 10 16 0.00 0.00
3:53 am 03:53 Clear 65 18.3 59 15 81 81 E 3 6 29.73 1007 10 16 0.00 0.00
4:53 am 04:53 Clear 63 17.2 58 14.4 84 84 SE 5 7 29.72 1006 10 16 0.00 0.00
5:53 am 05:53 Clear 63 17.2 59 15 87 87 E 5 7 29.72 1007 10 16 0.00 0.00
8:53 am 08:53 Sunny 74 23.3 64 17.8 71 71 ESE 5 7 29.76 1008 10 16 0.00 0.00
11:53 am 11:53 Sunny 87 30.6 62 16.7 43 43 VRB 3 6 29.75 1008 10 16 0.00 0.00
12:53 pm 12:53 Sunny 88 31.1 63 17.2 43 43 WSW 6 9 29.76 1008 10 16 0.00 0.00
1:53 pm 13:53 Sunny 90 32.2 68 20 49 49 NW 7 11 29.75 1008 10 16 0.00 0.00
2:53 pm 14:53 Sunny 92 33.3 70 21.1 49 49 WNW 5 7 29.75 1007 10 16 0.00 0.00
3:53 pm 15:53 Sunny 94 34.4 66 18.9 40 40 WSW 7 11 29.74 1007 10 16 0.00 0.00
4:53 pm 16:53 Sunny 93 33.9 68 20 44 44 WNW 9 15 29.74 1007 10 16 0.00 0.00
5:53 pm 17:53 Sunny 92 33.3 65 18.3 41 41 WNW 9 15 29.73 1007 10 16 0.00 0.00
6:53 pm 18:53 Sunny 90 32.2 70 21.1 52 52 NW 8 13 29.73 1007 10 16 0.00 0.00
8:53 pm 20:53 Sunny 81 27.2 66 18.9 61 61 NW 5 7 29.74 1007 10 16 0.00 0.00
9:53 pm 21:53 Clear with Nearby Thunderstorms 79 26.1 69 20.6 72 72 NNE 10 17 29.78 1008 10 16 0.00 0.00
10:12 pm 22:12 Clear with Thunderstorms 80 26.7 70 21.1 71 71 NNE 9 15 29.71 1006 10 16 0.00 0.00
10:28 pm 22:28 Clear 80 26.7 71 21.7 74 74 NNE 13 20 29.74 1007 10 16 0.00 0.00
10:53 pm 22:53 Mostly Cloudy with Light Rain 79 26.1 71 21.7 77 77 NNE 16 26 29.84 1011 10 16 0.01 0.13
11:53 pm 23:53 Clear 71 21.7 61 16.1 70 70 NE 10 17 29.87 1012 10 16 0.01 0.13

Powered by Vaisala Xweather